Regional Weather Roundup
Issued by NWS Charleston, SC

Current Version | Previous Version | Text Only | Print | Product List | Glossary Off
Versions: 1 2 3 4 5 6 7 8 9 10 11 12 13 14 15 16 17 18 19 20 21 22 23 24 25 26 27 28 29 30 31 32 33 34 35 36 37 38 39 40 41 42 43 44 45 46 47 48 49 50

000
ASUS42 KCHS 251425
RWRCHS

REGIONAL WEATHER ROUNDUP
NATIONAL WEATHER SERVICE CHARLESTON SC
1000 AM EDT FRI JUL 25 2014

NOTE: "FAIR" INDICATES FEW OR NO CLOUDS BELOW 12,000 FEET WITH NO
SIGNIFICANT WEATHER AND/OR OBSTRUCTIONS TO VISIBILITY.

NOT ALL STATIONS ARE QUALITY CONTROLLED BY THE NATIONAL
WEATHER SERVICE. USE DATA WITH CAUTION...ESPECIALLY
DEWPOINT OBSERVATIONS.

SCZ027-030-031-034>040-042>050-251500-
...SOUTH CAROLINA...

CITY           SKY/WX    TMP DP  RH WIND       PRES   REMARKS
N CHARLESTON   MOSUNNY   86  73  65 W3        30.03R HX  93
WATERFRONT PRK   N/A     84 N/A N/A SW6         N/A
FORT JOHNSON   NOT AVBL
MOUNT PLEASANT FAIR      84  75  74 SW5       30.03R HX  92
JOHNS ISLAND   SUNNY     86  70  58 CALM      30.04R HX  90
PINOPOLIS        N/A     84  73  70 SW5       29.93F HX  91
MONCKS CORNER    N/A     84  77  79 CALM      30.02R HX  94
SUMMERVILLE    FAIR      84  75  74 SW5       30.03S HX  92
BEAUFORT MCAS  MOSUNNY   84  74  71 NW9       30.03R HX  91
BEAUFORT ARPT  FAIR      86  75  70 W7        30.03S HX  95
HILTON HEAD IS NOT AVBL
GEORGETOWN     NOT AVBL
WALTERBORO     MOSUNNY   82  77  83 W5        30.03S HX  91
ORANGEBURG     SUNNY     83  71  67 NW5       30.03R
BARNWELL       FAIR      84  73  70 W6        30.03S HX  91
AIKEN          FAIR      81  77  89 W3        30.08R
MANNING        PTSUNNY   82  81  94 CALM      30.02S HX  95
KINGSTREE      NOT AVBL
COLUMBIA       PTSUNNY   82  70  66 NE3       30.03R
SUMTER         CLOUDY    73  72  94 NE7       30.03R
FLORENCE       CLOUDY    73  70  90 NE9       30.04R FOG
MYRTLE BEACH   PTSUNNY   81  73  78 N7        30.03R
N MYRTLE BEACH CLOUDY    78  73  84 N5        30.03R

$$

GAZ063-065-086>088-099>101-113>116-118-119-134-136>141-150-251500-
...GEORGIA...

CITY           SKY/WX    TMP DP  RH WIND       PRES   REMARKS
SAVANNAH ARPT  MOSUNNY   85  73  67 W12       30.04S HX  91
HUNTER AAF     SUNNY     85  74  70 W9        30.02S HX  93
FORT STEWART   SUNNY     84  74  71 VRB7      30.03F HX  91
STATESBORO     NOT AVBL
SYLVANIA       SUNNY     83  78  82 CALM      30.04S HX  93
CLAXTON        FAIR      86  77  74 W7        30.04S HX  97
THOMSON        PTSUNNY   81  78  90 CALM      30.09R
AUGUSTA-BUSH   SUNNY     82  71  69 SW6       30.02R
AUGUSTA-DANIEL MOSUNNY   82  72  71 NW5       30.04R
SWAINSBORO     FAIR      86  77  74 SW3       30.05S HX  97
VIDALIA          N/A     82  75  78 SW7       30.05S
ALMA           SUNNY     84  73  69 W9        30.06S HX  90
WAYCROSS       MOSUNNY   88  78  72 W8        30.07S HX 101
JESUP          NOT AVBL
BRUNSWICK      SUNNY     86  72  62 CALM      30.06S HX  92
SAINT SIMONS   SUNNY     84  73  69 W8        30.05F HX  90

$$

SCZ027-028-034-036>038-045-046-048>050-GAZ119-141-251500-
...LAKE AND SUPPLEMENTAL COASTAL OBSERVATIONS...

STATION/POSITION TIME  TEMP    WIND        PRES    WAVE   SWELL
                       AIR SEA DIR/SP/G            HT/PER HT/PER/DIR
                 (UTC) (F)     (DEG/KT/KT) (MB)    (FT/S) (FT/S/D)
UPR LAKE MARION  NOT AVBL
WINYAH BAY       1400   83     220/  4     1016.0S
LAKE MURRAY      1300   74      50/  3/  5 1016.6R
ACE BASIN NERRS  1400   83     290/  3     1017.0S
FORT PULASKI     1400   83     270/ 11/ 14 1017.4R
SAPELO ISLAND    1400   84     260/ 11     1018.0S

$$

ANZ835-935-AMZ111-154-330-350-352-354-374-450-454-472-251500-
...C-MAN AND BUOY OBSERVATIONS...

STATION/POSITION TIME  TEMP    WIND        PRES    WAVE   SWELL
                       AIR SEA DIR/SP/G            HT/PER HT/PER/DIR
                 (UTC) (F)     (DEG/KT/KT) (MB)    (FT/S) (FT/S/D)
FOLLY BEACH CMAN 1400   83     280/  3/  6 1017.3R
BUOY 41004       1400   82 82  260/ 12/ 14 1016.1R   4/ 6   3/ 6
BUOY 41008       1400   81 84  270/ 14/ 16 1017.2R   3/ 5
5E ST. MARYS GA  1400      85                N/A     2/ 4
FRYING PAN BUOY  NOT AVBL
BUOY 41025       1400          VRB 12/ 14  1016.2R   3/ 7   2/150/ 7
CAPE LOOKOUT NC  1400   76      20/ 11/ 13 1016.8R
BUOY 41002       1309   82 82  240/ 14/ 17 1019.4R   5/ 6   2/260/ 7
BUOY 41010       1400   83 84  220/ 14/ 16 1019.2S   3/ 6   2/13
BUOY 41012       NOT AVBL
ST AUGUSTINE FL  1400   85     270/  5/  6 1019.1R
CAPERS NEARSHORE 1300   81     250/ 10/ 12   N/A
FRIPP NEARSHORE  NOT AVBL


$$



USA.gov is the U.S. government's official web portal to all federal, state and local government web resources and services.